EW0195 Weather Reports


Display with metric or nautical units.
time (UTC)temp
F
wind
direction
speed
MPH
gust
MPH
rain 1hr
in
rain 24hr
in
rain mn
in
humidity
%
barometer
mb
20260902071446 69 138 0.0 1.0 0.00 0.00 0.00 99 1017.2
20260902065949 69 136 0.0 1.0 0.00 0.00 0.00 99 1017.2
20260902064445 69 136 0.0 1.0 0.00 0.00 0.00 99 1017.0
20260901235950 83 314 1.0 6.0 0.00 0.00 0.00 78 1013.5
20260901234446 83 297 2.0 9.0 0.00 0.00 0.00 79 1012.9
20260901232947 84 311 2.0 5.0 0.00 0.00 0.00 79 1012.9
20260901231446 84 287 1.0 3.0 0.00 0.00 0.00 80 1013.8
20260901225949 85 274 1.0 4.0 0.00 0.00 0.00 78 1013.6
20260901222946 87 285 0.0 2.0 0.00 0.00 0.00 74 1013.9
20260901221446 88 293 1.0 5.0 0.00 0.00 0.00 74 1013.6
20260901215949 88 301 1.0 3.0 0.00 0.00 0.00 72 1013.7
20260901214446 89 294 2.0 4.0 0.00 0.00 0.00 70 1013.8
20260901212946 89 313 3.0 8.0 0.00 0.00 0.00 70 1013.9
20260901211446 90 305 3.0 7.0 0.00 0.00 0.00 70 1013.8
20260901205950 90 299 2.0 7.0 0.00 0.00 0.00 72 1014.0
20260901204447 90 300 2.0 6.0 0.00 0.00 0.00 69 1014.1
20260901202946 89 314 1.0 6.0 0.00 0.00 0.00 73 1014.2
20260901195949 89 298 2.0 8.0 0.00 0.00 0.00 71 1014.5
20260901194445 91 322 2.0 8.0 0.00 0.00 0.00 71 1014.5
20260901192946 89 296 3.0 10.0 0.00 0.00 0.00 70 1014.7
20260901191446 89 292 3.0 9.0 0.00 0.00 0.00 70 1014.8
20260901185950 89 330 2.0 5.0 0.00 0.00 0.00 72 1014.9
20260901184445 88 266 3.0 8.0 0.00 0.00 0.00 69 1015.2
20260901182945 87 321 4.0 9.0 0.00 0.00 0.00 71 1015.2
20260901181446 88 299 3.0 7.0 0.00 0.00 0.00 72 1015.1
20260901175950 88 301 3.0 10.0 0.00 0.00 0.00 72 1015.2
20260901174446 87 307 2.0 8.0 0.00 0.00 0.00 75 1015.3
20260901172946 86 324 1.0 4.0 0.00 0.00 0.00 76 1015.3
20260901171446 85 299 1.0 5.0 0.00 0.00 0.00 78 1015.5
20260901165948 84 262 2.0 5.0 0.00 0.00 0.00 77 1015.7
20260901164446 82 287 1.0 3.0 0.00 0.00 0.00 81 1016.0
20260901162946 82 308 0.0 2.0 0.00 0.00 0.00 82 1016.2
20260901155949 82 288 0.0 1.0 0.00 0.00 0.00 81 1016.3
20260901152946 83 298 0.0 3.0 0.00 0.00 0.00 78 1016.3
20260901151446 84 293 0.0 4.0 0.00 0.00 0.00 79 1016.3
20260901145949 84 330 0.0 3.0 0.00 0.00 0.00 79 1016.3
20260901142946 81 351 0.0 4.0 0.00 0.00 0.00 85 1016.4
20260901141446 79 297 1.0 6.0 0.00 0.00 0.00 86 1016.4
20260901135948 78 292 1.0 4.0 0.00 0.00 0.00 89 1016.7
20260901134446 77 311 0.0 2.0 0.00 0.00 0.00 91 1016.3
20260901132945 76 305 0.0 2.0 0.00 0.00 0.00 91 1016.2
20260901131446 76 316 0.0 2.0 0.00 0.00 0.00 92 1016.5
20260901125951 76 304 0.0 2.0 0.00 0.00 0.00 92 1016.4
20260901124445 76 304 0.0 2.0 0.00 0.00 0.00 93 1016.7
20260901122946 75 317 1.0 4.0 0.00 0.00 0.00 93 1016.6
20260901121446 74 316 1.0 2.0 0.00 0.00 0.00 95 1016.5
20260901114445 73 311 0.0 2.0 0.00 0.00 0.00 96 1016.8
20260901112946 73 343 1.0 3.0 0.00 0.00 0.00 96 1016.6
20260901111445 73 307 1.0 2.0 0.00 0.00 0.00 96 1016.6
20260901105949 72 305 0.0 1.0 0.00 0.00 0.00 97 1016.7
20260901104445 72 305 0.0 2.0 0.00 0.00 0.00 96 1016.4
20260901102946 72 334 0.0 1.0 0.00 0.00 0.00 96 1016.6
20260901101446 72 300 1.0 3.0 0.00 0.00 0.00 96 1016.3
20260901095949 72 298 0.0 2.0 0.00 0.00 0.00 96 1016.6
20260901092946 72 308 1.0 4.0 0.00 0.00 0.00 96 1016.5
20260901084445 72 304 0.0 2.0 0.00 0.00 0.00 96 1016.7
20260901082945 72 304 1.0 3.0 0.00 0.00 0.00 96 1016.8
20260901081446 72 313 1.0 3.0 0.00 0.00 0.00 96 1016.7
20260901075950 72 310 1.0 5.0 0.00 0.00 0.00 96 1016.7
20260901072945 72 297 1.0 3.0 0.00 0.00 0.00 95 1016.7